Year,Month,Day,Hour,Minute,Value (Times are PST for temperature in C)
2014,08,13,00,00,22.70
2014,08,13,00,01,22.70
2014,08,13,00,02,22.60
2014,08,13,00,03,22.60
2014,08,13,00,04,22.60
2014,08,13,00,05,22.60
2014,08,13,00,06,22.60
2014,08,13,00,07,22.50
2014,08,13,00,08,22.50
2014,08,13,00,09,22.50
2014,08,13,00,10,22.50
2014,08,13,00,11,22.50
2014,08,13,00,12,22.50
2014,08,13,00,13,22.50
2014,08,13,00,14,22.40
2014,08,13,00,15,22.40
2014,08,13,00,16,22.30
2014,08,13,00,17,22.20
2014,08,13,00,18,22.20
2014,08,13,00,19,22.10
2014,08,13,00,20,22.00
2014,08,13,00,21,21.90
2014,08,13,00,22,21.80
2014,08,13,00,23,21.70
2014,08,13,00,24,21.60
2014,08,13,00,25,21.60
2014,08,13,00,26,21.60
2014,08,13,00,27,21.50
2014,08,13,00,28,21.40
2014,08,13,00,29,21.30
2014,08,13,00,30,21.30
2014,08,13,00,31,21.30
2014,08,13,00,32,21.30
2014,08,13,00,33,21.20
2014,08,13,00,34,21.20
2014,08,13,00,35,21.20
2014,08,13,00,36,21.10
2014,08,13,00,37,21.10
2014,08,13,00,38,21.10
2014,08,13,00,39,21.10
2014,08,13,00,40,21.10
2014,08,13,00,41,21.10
2014,08,13,00,42,21.10
2014,08,13,00,43,21.10
2014,08,13,00,44,21.10
2014,08,13,00,45,21.10
2014,08,13,00,46,21.10
2014,08,13,00,47,21.10
2014,08,13,00,48,21.10
2014,08,13,00,49,21.10
2014,08,13,00,50,21.10
2014,08,13,00,51,21.20
2014,08,13,00,52,21.20
2014,08,13,00,53,21.20
2014,08,13,00,54,21.20
2014,08,13,00,55,21.20
2014,08,13,00,56,21.20
2014,08,13,00,57,21.20
2014,08,13,00,58,21.30
2014,08,13,00,59,21.30
2014,08,13,01,00,21.30
2014,08,13,01,01,21.30
2014,08,13,01,02,21.30
2014,08,13,01,03,21.30
2014,08,13,01,04,21.30
2014,08,13,01,05,21.30
2014,08,13,01,06,21.30
2014,08,13,01,07,21.30
2014,08,13,01,08,21.30
2014,08,13,01,09,21.30
2014,08,13,01,10,21.30
2014,08,13,01,11,21.30
2014,08,13,01,12,21.30
2014,08,13,01,13,21.30
2014,08,13,01,14,21.20
2014,08,13,01,15,21.20
2014,08,13,01,16,21.20
2014,08,13,01,17,21.20
2014,08,13,01,18,21.20
2014,08,13,01,19,21.10
2014,08,13,01,20,21.10
2014,08,13,01,21,21.10
2014,08,13,01,22,21.10
2014,08,13,01,23,21.10
2014,08,13,01,24,21.10
2014,08,13,01,25,21.10
2014,08,13,01,26,21.00
2014,08,13,01,27,21.00
2014,08,13,01,28,21.00
2014,08,13,01,29,21.00
2014,08,13,01,30,21.00
2014,08,13,01,31,21.00
2014,08,13,01,32,20.90
2014,08,13,01,33,20.90
2014,08,13,01,34,20.90
2014,08,13,01,35,20.90
2014,08,13,01,36,20.90
2014,08,13,01,37,20.80
2014,08,13,01,38,20.80
2014,08,13,01,39,20.80
2014,08,13,01,40,20.80
2014,08,13,01,41,20.80
2014,08,13,01,42,20.80
2014,08,13,01,43,20.70
2014,08,13,01,44,20.70
2014,08,13,01,45,20.70
2014,08,13,01,46,20.70
2014,08,13,01,47,20.70
2014,08,13,01,48,20.70
2014,08,13,01,49,20.70
2014,08,13,01,50,20.70
2014,08,13,01,51,20.70
2014,08,13,01,52,20.70
2014,08,13,01,53,20.70
2014,08,13,01,54,20.70
2014,08,13,01,55,20.70
2014,08,13,01,56,20.70
2014,08,13,01,57,20.70
2014,08,13,01,58,20.70
2014,08,13,01,59,20.70
2014,08,13,02,00,20.70
2014,08,13,02,01,20.70
2014,08,13,02,02,20.70
2014,08,13,02,03,20.70
2014,08,13,02,04,20.70
2014,08,13,02,05,20.70
2014,08,13,02,06,20.70
2014,08,13,02,07,20.60
2014,08,13,02,08,20.60
2014,08,13,02,09,20.50
2014,08,13,02,10,20.50
2014,08,13,02,11,20.40
2014,08,13,02,12,20.30
2014,08,13,02,13,20.20
2014,08,13,02,14,20.20
2014,08,13,02,15,20.10
2014,08,13,02,16,20.00
2014,08,13,02,17,19.90
2014,08,13,02,18,19.90
2014,08,13,02,19,19.80
2014,08,13,02,20,19.70
2014,08,13,02,21,19.60
2014,08,13,02,22,19.60
2014,08,13,02,23,19.50
2014,08,13,02,24,19.40
2014,08,13,02,25,19.40
2014,08,13,02,26,19.30
2014,08,13,02,27,19.20
2014,08,13,02,28,19.20
2014,08,13,02,29,19.10
2014,08,13,02,30,19.10
2014,08,13,02,31,19.10
2014,08,13,02,32,19.10
2014,08,13,02,33,19.10
2014,08,13,02,34,19.00
2014,08,13,02,35,18.90
2014,08,13,02,36,18.90
2014,08,13,02,37,18.90
2014,08,13,02,38,18.90
2014,08,13,02,39,18.80
2014,08,13,02,40,18.80
2014,08,13,02,41,18.80
2014,08,13,02,42,18.70
2014,08,13,02,43,18.70
2014,08,13,02,44,18.70
2014,08,13,02,45,18.70
2014,08,13,02,46,18.60
2014,08,13,02,47,18.60
2014,08,13,02,48,18.60
2014,08,13,02,49,18.50
2014,08,13,02,50,18.50
2014,08,13,02,51,18.40
2014,08,13,02,52,18.40
2014,08,13,02,53,18.40
2014,08,13,02,54,18.40
2014,08,13,02,55,18.30
2014,08,13,02,56,18.30
2014,08,13,02,57,18.30
2014,08,13,02,58,18.20
2014,08,13,02,59,18.20
2014,08,13,03,00,18.20
2014,08,13,03,01,18.10
2014,08,13,03,02,18.10
2014,08,13,03,03,18.10
2014,08,13,03,04,18.10
2014,08,13,03,05,18.10
2014,08,13,03,06,18.00
2014,08,13,03,07,17.90
2014,08,13,03,08,17.90
2014,08,13,03,09,17.90
2014,08,13,03,10,17.90
2014,08,13,03,11,17.90
2014,08,13,03,12,17.90
2014,08,13,03,13,17.80
2014,08,13,03,14,17.80
2014,08,13,03,15,17.70
2014,08,13,03,16,17.70
2014,08,13,03,17,17.60
2014,08,13,03,18,17.60
2014,08,13,03,19,17.50
2014,08,13,03,20,17.50
2014,08,13,03,21,17.50
2014,08,13,03,22,17.50
2014,08,13,03,23,17.40
2014,08,13,03,24,17.40
2014,08,13,03,25,17.40
2014,08,13,03,26,17.40
2014,08,13,03,27,17.40
2014,08,13,03,28,17.40
2014,08,13,03,29,17.40
2014,08,13,03,30,17.40
2014,08,13,03,31,17.40
2014,08,13,03,32,17.40
2014,08,13,03,33,17.40
2014,08,13,03,34,17.30
2014,08,13,03,35,17.30
2014,08,13,03,36,17.30
2014,08,13,03,37,17.30
2014,08,13,03,38,17.30
2014,08,13,03,39,17.30
2014,08,13,03,40,17.30
2014,08,13,03,41,17.30
2014,08,13,03,42,17.30
2014,08,13,03,43,17.30
2014,08,13,03,44,17.30
2014,08,13,03,45,17.30
2014,08,13,03,46,17.40
2014,08,13,03,47,17.50
2014,08,13,03,48,17.60
2014,08,13,03,49,17.70
2014,08,13,03,50,17.80
2014,08,13,03,51,17.90
2014,08,13,03,52,17.90
2014,08,13,03,53,17.90
2014,08,13,03,54,17.90
2014,08,13,03,55,17.90
2014,08,13,03,56,18.00
2014,08,13,03,57,18.10
2014,08,13,03,58,18.10
2014,08,13,03,59,18.10
2014,08,13,04,00,18.10
2014,08,13,04,01,18.20
2014,08,13,04,02,18.20
2014,08,13,04,03,18.20
2014,08,13,04,04,18.30
2014,08,13,04,05,18.30
2014,08,13,04,06,18.40
2014,08,13,04,07,18.40
2014,08,13,04,08,18.40
2014,08,13,04,09,18.50
2014,08,13,04,10,18.50
2014,08,13,04,11,18.50
2014,08,13,04,12,18.50
2014,08,13,04,13,18.50
2014,08,13,04,14,18.60
2014,08,13,04,15,18.60
2014,08,13,04,16,18.60
2014,08,13,04,17,18.60
2014,08,13,04,18,18.70
2014,08,13,04,19,18.70
2014,08,13,04,20,18.70
2014,08,13,04,21,18.70
2014,08,13,04,22,18.70
2014,08,13,04,23,18.80
2014,08,13,04,24,18.80
2014,08,13,04,25,18.80
2014,08,13,04,26,18.80
2014,08,13,04,27,18.80
2014,08,13,04,28,18.80
2014,08,13,04,29,18.80
2014,08,13,04,30,18.80
2014,08,13,04,31,18.80
2014,08,13,04,32,18.80
2014,08,13,04,33,18.80
2014,08,13,04,34,18.80
2014,08,13,04,35,18.80
2014,08,13,04,36,18.80
2014,08,13,04,37,18.70
2014,08,13,04,38,18.70
2014,08,13,04,39,18.60
2014,08,13,04,40,18.60
2014,08,13,04,41,18.60
2014,08,13,04,42,18.50
2014,08,13,04,43,18.50
2014,08,13,04,44,18.40
2014,08,13,04,45,18.40
2014,08,13,04,46,18.30
2014,08,13,04,47,18.30
2014,08,13,04,48,18.20
2014,08,13,04,49,18.20
2014,08,13,04,50,18.10
2014,08,13,04,51,18.10
2014,08,13,04,52,18.00
2014,08,13,04,53,17.90
2014,08,13,04,54,17.90
2014,08,13,04,55,17.90
2014,08,13,04,56,17.80
2014,08,13,04,57,17.80
2014,08,13,04,58,17.80
2014,08,13,04,59,17.70
2014,08,13,05,00,17.70
2014,08,13,05,01,17.70
2014,08,13,05,02,17.70
2014,08,13,05,03,17.60
2014,08,13,05,04,17.60
2014,08,13,05,05,17.60
2014,08,13,05,06,17.60
2014,08,13,05,07,17.60
2014,08,13,05,08,17.60
2014,08,13,05,09,17.60
2014,08,13,05,10,17.60
2014,08,13,05,11,17.60
2014,08,13,05,12,17.60
2014,08,13,05,13,17.60
2014,08,13,05,14,17.60
2014,08,13,05,15,17.60
2014,08,13,05,16,17.60
2014,08,13,05,17,17.60
2014,08,13,05,18,17.60
2014,08,13,05,19,17.60
2014,08,13,05,20,17.60
2014,08,13,05,21,17.50
2014,08,13,05,22,17.50
2014,08,13,05,23,17.50
2014,08,13,05,24,17.50
2014,08,13,05,25,17.50
2014,08,13,05,26,17.50
2014,08,13,05,27,17.50
2014,08,13,05,28,17.50
2014,08,13,05,29,17.50
2014,08,13,05,30,17.50
2014,08,13,05,31,17.50
2014,08,13,05,32,17.50
2014,08,13,05,33,17.50
2014,08,13,05,34,17.60
2014,08,13,05,35,17.60
2014,08,13,05,36,17.60
2014,08,13,05,37,17.60
2014,08,13,05,38,17.60
2014,08,13,05,39,17.70
2014,08,13,05,40,17.70
2014,08,13,05,41,17.60
2014,08,13,05,42,17.60
2014,08,13,05,43,17.60
2014,08,13,05,44,17.60
2014,08,13,05,45,17.60
2014,08,13,05,46,17.60
2014,08,13,05,47,17.60
2014,08,13,05,48,17.60
2014,08,13,05,49,17.60
2014,08,13,05,50,17.60
2014,08,13,05,51,17.60
2014,08,13,05,52,17.50
2014,08,13,05,53,17.50
2014,08,13,05,54,17.50
2014,08,13,05,55,17.50
2014,08,13,05,56,17.50
2014,08,13,05,57,17.50
2014,08,13,05,58,17.50
2014,08,13,05,59,17.50
2014,08,13,06,00,17.40
2014,08,13,06,01,17.40
2014,08,13,06,02,17.40
2014,08,13,06,03,17.40
2014,08,13,06,04,17.40
2014,08,13,06,05,17.40
2014,08,13,06,06,17.40
2014,08,13,06,07,17.40
2014,08,13,06,08,17.40
2014,08,13,06,09,17.40
2014,08,13,06,10,17.40
2014,08,13,06,11,17.30
2014,08,13,06,12,17.30
2014,08,13,06,13,17.30
2014,08,13,06,14,17.30
2014,08,13,06,15,17.30
2014,08,13,06,16,17.30
2014,08,13,06,17,17.30
2014,08,13,06,18,17.30
2014,08,13,06,19,17.30
2014,08,13,06,20,17.30
2014,08,13,06,21,17.30
2014,08,13,06,22,17.30
2014,08,13,06,23,17.30
2014,08,13,06,24,17.30
2014,08,13,06,25,17.20
2014,08,13,06,26,17.20
2014,08,13,06,27,17.20
2014,08,13,06,28,17.20
2014,08,13,06,29,17.20
2014,08,13,06,30,17.20
2014,08,13,06,31,17.20
2014,08,13,06,32,17.20
2014,08,13,06,33,17.20
2014,08,13,06,34,17.10
2014,08,13,06,35,17.10
2014,08,13,06,36,17.10
2014,08,13,06,37,17.10
2014,08,13,06,38,17.10
2014,08,13,06,39,17.10
2014,08,13,06,40,17.10
2014,08,13,06,41,17.10
2014,08,13,06,42,17.10
2014,08,13,06,43,17.10
2014,08,13,06,44,17.10
2014,08,13,06,45,17.10
2014,08,13,06,46,17.10
2014,08,13,06,47,17.10
2014,08,13,06,48,17.10
2014,08,13,06,49,17.10
2014,08,13,06,50,17.10
2014,08,13,06,51,17.10
2014,08,13,06,52,17.10
2014,08,13,06,53,17.10
2014,08,13,06,54,17.10
2014,08,13,06,55,17.10
2014,08,13,06,56,17.10
2014,08,13,06,57,17.10
2014,08,13,06,58,17.10
2014,08,13,06,59,17.20
2014,08,13,07,00,17.20
2014,08,13,07,01,17.20
2014,08,13,07,02,17.20
2014,08,13,07,03,17.20
2014,08,13,07,04,17.20
2014,08,13,07,05,17.20
2014,08,13,07,06,17.20
2014,08,13,07,07,17.20
2014,08,13,07,08,17.10
2014,08,13,07,09,17.10
2014,08,13,07,10,17.10
2014,08,13,07,11,17.10
2014,08,13,07,12,17.10
2014,08,13,07,13,17.10
2014,08,13,07,14,17.10
2014,08,13,07,15,17.10
2014,08,13,07,16,17.10
2014,08,13,07,17,17.10
2014,08,13,07,18,17.10
2014,08,13,07,19,17.10
2014,08,13,07,20,17.10
2014,08,13,07,21,17.10
2014,08,13,07,22,17.10
2014,08,13,07,23,17.10
2014,08,13,07,24,17.10
2014,08,13,07,25,17.10
2014,08,13,07,26,17.10
2014,08,13,07,27,17.10
2014,08,13,07,28,17.10
2014,08,13,07,29,17.10
2014,08,13,07,30,17.10
2014,08,13,07,31,17.10
2014,08,13,07,32,17.20
2014,08,13,07,33,17.20
2014,08,13,07,34,17.20
2014,08,13,07,35,17.20
2014,08,13,07,36,17.20
2014,08,13,07,37,17.20
2014,08,13,07,38,17.20
2014,08,13,07,39,17.20
2014,08,13,07,40,17.20
2014,08,13,07,41,17.20
2014,08,13,07,42,17.20
2014,08,13,07,43,17.20
2014,08,13,07,44,17.30
2014,08,13,07,45,17.30
2014,08,13,07,46,17.30
2014,08,13,07,47,17.30
2014,08,13,07,48,17.30
2014,08,13,07,49,17.30
2014,08,13,07,50,17.30
2014,08,13,07,51,17.20
2014,08,13,07,52,17.20
2014,08,13,07,53,17.20
2014,08,13,07,54,17.20
2014,08,13,07,55,17.20
2014,08,13,07,56,17.20
2014,08,13,07,57,17.20
2014,08,13,07,58,17.20
2014,08,13,07,59,17.20
2014,08,13,08,00,17.20
2014,08,13,08,01,17.20
2014,08,13,08,02,17.30
2014,08,13,08,03,17.30
2014,08,13,08,04,17.30
2014,08,13,08,05,17.30
2014,08,13,08,06,17.30
2014,08,13,08,07,17.20
2014,08,13,08,08,17.20
2014,08,13,08,09,17.20
2014,08,13,08,10,17.20
2014,08,13,08,11,17.20
2014,08,13,08,12,17.20
2014,08,13,08,13,17.10
2014,08,13,08,14,17.20
2014,08,13,08,15,17.20
2014,08,13,08,16,17.20
2014,08,13,08,17,17.10
2014,08,13,08,18,17.10
2014,08,13,08,19,17.10
2014,08,13,08,20,17.10
2014,08,13,08,21,17.10
2014,08,13,08,22,17.10
2014,08,13,08,23,17.00
2014,08,13,08,24,17.00
2014,08,13,08,25,17.00
2014,08,13,08,26,17.00
2014,08,13,08,27,17.00
2014,08,13,08,28,17.00
2014,08,13,08,29,17.00
2014,08,13,08,30,17.00
2014,08,13,08,31,17.00
2014,08,13,08,32,17.10
2014,08,13,08,33,17.10
2014,08,13,08,34,17.10
2014,08,13,08,35,17.10
2014,08,13,08,36,17.10
2014,08,13,08,37,17.10
2014,08,13,08,38,17.20
2014,08,13,08,39,17.20
2014,08,13,08,40,17.10
2014,08,13,08,41,17.10
2014,08,13,08,42,17.10
2014,08,13,08,43,17.10
2014,08,13,08,44,17.10
2014,08,13,08,45,17.10
2014,08,13,08,46,17.10
2014,08,13,08,47,17.10
2014,08,13,08,48,17.10
2014,08,13,08,49,17.10
2014,08,13,08,50,17.10
2014,08,13,08,51,17.10
2014,08,13,08,52,17.10
2014,08,13,08,53,17.10
2014,08,13,08,54,17.10
2014,08,13,08,55,17.20
2014,08,13,08,56,17.20
2014,08,13,08,57,17.20
2014,08,13,08,58,17.20
2014,08,13,08,59,17.20
2014,08,13,09,00,17.20
2014,08,13,09,01,17.20
2014,08,13,09,02,17.20
2014,08,13,09,03,17.20
2014,08,13,09,04,17.20
2014,08,13,09,05,17.20
2014,08,13,09,06,17.20
2014,08,13,09,07,17.20
2014,08,13,09,08,17.20
2014,08,13,09,09,17.30
2014,08,13,09,10,17.30
2014,08,13,09,11,17.30
2014,08,13,09,12,17.30
2014,08,13,09,13,17.30
2014,08,13,09,14,17.20
2014,08,13,09,15,17.20
2014,08,13,09,16,17.30
2014,08,13,09,17,17.30
2014,08,13,09,18,17.30
2014,08,13,09,19,17.30
2014,08,13,09,20,17.30
2014,08,13,09,21,17.30
2014,08,13,09,22,17.30
2014,08,13,09,23,17.30
2014,08,13,09,24,17.30
2014,08,13,09,25,17.30
2014,08,13,09,26,17.30
2014,08,13,09,27,17.30
2014,08,13,09,28,17.30
2014,08,13,09,29,17.30
2014,08,13,09,30,17.30
2014,08,13,09,31,17.30
2014,08,13,09,32,17.30
2014,08,13,09,33,17.30
2014,08,13,09,34,17.30
2014,08,13,09,35,17.30
2014,08,13,09,36,17.30
2014,08,13,09,37,17.30
2014,08,13,09,38,17.30
2014,08,13,09,39,17.30
2014,08,13,09,40,17.30
2014,08,13,09,41,17.30
2014,08,13,09,42,17.30
2014,08,13,09,43,17.30
2014,08,13,09,44,17.30
2014,08,13,09,45,17.30
2014,08,13,09,46,17.30
2014,08,13,09,47,17.30
2014,08,13,09,48,17.40
2014,08,13,09,49,17.40
2014,08,13,09,50,17.40
2014,08,13,09,51,17.40
2014,08,13,09,52,17.40
2014,08,13,09,53,17.40
2014,08,13,09,54,17.40
2014,08,13,09,55,17.50
2014,08,13,09,56,17.50
2014,08,13,09,57,17.50
2014,08,13,09,58,17.50
2014,08,13,09,59,17.50
2014,08,13,10,00,17.50
2014,08,13,10,01,17.60
2014,08,13,10,02,17.60
2014,08,13,10,03,17.70
2014,08,13,10,04,17.70
2014,08,13,10,05,17.70
2014,08,13,10,06,17.70
2014,08,13,10,07,17.70
2014,08,13,10,08,17.60
2014,08,13,10,09,17.60
2014,08,13,10,10,17.60
2014,08,13,10,11,17.60
2014,08,13,10,12,17.70
2014,08,13,10,13,17.70
2014,08,13,10,14,17.70
2014,08,13,10,15,17.80
2014,08,13,10,16,17.80
2014,08,13,10,17,17.90
2014,08,13,10,18,17.90
2014,08,13,10,19,17.90
2014,08,13,10,20,17.80
2014,08,13,10,21,17.80
2014,08,13,10,22,17.90
2014,08,13,10,23,17.80
2014,08,13,10,24,17.80
2014,08,13,10,25,17.80
2014,08,13,10,26,17.80
2014,08,13,10,27,17.70
2014,08,13,10,28,17.70
2014,08,13,10,29,17.70
2014,08,13,10,30,17.70
2014,08,13,10,31,17.70
2014,08,13,10,32,17.70
2014,08,13,10,33,17.70
2014,08,13,10,34,17.70
2014,08,13,10,35,17.70
2014,08,13,10,36,17.70
2014,08,13,10,37,17.70
2014,08,13,10,38,17.70
2014,08,13,10,39,17.70
2014,08,13,10,40,17.70
2014,08,13,10,41,17.80
2014,08,13,10,42,17.80
2014,08,13,10,43,17.80
2014,08,13,10,44,17.70
2014,08,13,10,45,17.60
2014,08,13,10,46,17.60
2014,08,13,10,47,17.60
2014,08,13,10,48,17.60
2014,08,13,10,49,17.60
2014,08,13,10,50,17.60
2014,08,13,10,51,17.60
2014,08,13,10,52,17.60
2014,08,13,10,53,17.60
2014,08,13,10,54,17.60
2014,08,13,10,55,17.50
2014,08,13,10,56,17.40
2014,08,13,10,57,17.40
2014,08,13,10,58,17.40
2014,08,13,10,59,17.40
2014,08,13,11,00,17.30
2014,08,13,11,01,17.20
2014,08,13,11,02,17.10
2014,08,13,11,03,17.00
2014,08,13,11,04,17.00
2014,08,13,11,05,16.90
2014,08,13,11,06,16.90
2014,08,13,11,07,16.90
2014,08,13,11,08,16.80
2014,08,13,11,09,16.70
2014,08,13,11,10,16.70
2014,08,13,11,11,16.70
2014,08,13,11,12,16.70
2014,08,13,11,13,16.70
2014,08,13,11,14,16.60
2014,08,13,11,15,16.50
2014,08,13,11,16,16.40
2014,08,13,11,17,16.30
2014,08,13,11,18,16.30
2014,08,13,11,19,16.20
2014,08,13,11,20,16.10
2014,08,13,11,21,16.10
2014,08,13,11,22,16.10
2014,08,13,11,23,16.10
2014,08,13,11,24,16.10
2014,08,13,11,25,16.10
2014,08,13,11,26,16.10
2014,08,13,11,27,16.10
2014,08,13,11,28,16.10
2014,08,13,11,29,16.10
2014,08,13,11,30,16.20
2014,08,13,11,31,16.20
2014,08,13,11,32,16.20
2014,08,13,11,33,16.30
2014,08,13,11,34,16.20
2014,08,13,11,35,16.20
2014,08,13,11,36,16.20
2014,08,13,11,37,16.20
2014,08,13,11,38,16.20
2014,08,13,11,39,16.20
2014,08,13,11,40,16.30
2014,08,13,11,41,16.30
2014,08,13,11,42,16.40
2014,08,13,11,43,16.40
2014,08,13,11,44,16.40
2014,08,13,11,45,16.40
2014,08,13,11,46,16.40
2014,08,13,11,47,16.40
2014,08,13,11,48,16.40
2014,08,13,11,49,16.40
2014,08,13,11,50,16.40
2014,08,13,11,51,16.40
2014,08,13,11,52,16.40
2014,08,13,11,53,16.30
2014,08,13,11,54,16.20
2014,08,13,11,55,16.20
2014,08,13,11,56,16.20
2014,08,13,11,57,16.20
2014,08,13,11,58,16.20
2014,08,13,11,59,16.30
2014,08,13,12,00,16.30
2014,08,13,12,01,16.30
2014,08,13,12,02,16.30
2014,08,13,12,03,16.30
2014,08,13,12,04,16.20
2014,08,13,12,05,16.20
2014,08,13,12,06,16.10
2014,08,13,12,07,16.10
2014,08,13,12,08,16.00
2014,08,13,12,09,15.90
2014,08,13,12,10,15.80
2014,08,13,12,11,15.60
2014,08,13,12,12,15.50
2014,08,13,12,13,15.50
2014,08,13,12,14,15.40
2014,08,13,12,15,15.30
2014,08,13,12,16,15.30
2014,08,13,12,17,15.30
2014,08,13,12,18,15.30
2014,08,13,12,19,15.30
2014,08,13,12,20,15.30
2014,08,13,12,21,15.30
2014,08,13,12,22,15.30
2014,08,13,12,23,15.30
2014,08,13,12,24,15.30
2014,08,13,12,25,15.30
2014,08,13,12,26,15.30
2014,08,13,12,27,15.30
2014,08,13,12,28,15.30
2014,08,13,12,29,15.30
2014,08,13,12,30,15.30
2014,08,13,12,31,15.30
2014,08,13,12,32,15.30
2014,08,13,12,33,15.30
2014,08,13,12,34,15.40
2014,08,13,12,35,15.40
2014,08,13,12,36,15.50
2014,08,13,12,37,15.50
2014,08,13,12,38,15.50
2014,08,13,12,39,15.40
2014,08,13,12,40,15.40
2014,08,13,12,41,15.40
2014,08,13,12,42,15.30
2014,08,13,12,43,15.30
2014,08,13,12,44,15.30
2014,08,13,12,45,15.30
2014,08,13,12,46,15.30
2014,08,13,12,47,15.30
2014,08,13,12,48,15.30
2014,08,13,12,49,15.30
2014,08,13,12,50,15.30
2014,08,13,12,51,15.20
2014,08,13,12,52,15.10
2014,08,13,12,53,15.10
2014,08,13,12,54,15.10
2014,08,13,12,55,15.10
2014,08,13,12,56,15.00
2014,08,13,12,57,15.10
2014,08,13,12,58,15.10
2014,08,13,12,59,15.10
2014,08,13,13,00,15.00
2014,08,13,13,01,15.00
2014,08,13,13,02,14.90
2014,08,13,13,03,14.90
2014,08,13,13,04,14.90
2014,08,13,13,05,14.80
2014,08,13,13,06,14.80
2014,08,13,13,07,14.70
2014,08,13,13,08,14.60
2014,08,13,13,09,14.50
2014,08,13,13,10,14.40
2014,08,13,13,11,14.30
2014,08,13,13,12,14.20
2014,08,13,13,13,14.00
2014,08,13,13,14,13.90
2014,08,13,13,15,13.90
2014,08,13,13,16,13.80
2014,08,13,13,17,13.80
2014,08,13,13,18,13.70
2014,08,13,13,19,13.70
2014,08,13,13,20,13.70
2014,08,13,13,21,13.70
2014,08,13,13,22,13.70
2014,08,13,13,23,13.70
2014,08,13,13,24,13.70
2014,08,13,13,25,13.70
2014,08,13,13,26,13.70
2014,08,13,13,27,13.60
2014,08,13,13,28,13.70
2014,08,13,13,29,13.70
2014,08,13,13,30,13.70
2014,08,13,13,31,13.70
2014,08,13,13,32,13.70
2014,08,13,13,33,13.70
2014,08,13,13,34,13.70
2014,08,13,13,35,13.70
2014,08,13,13,36,13.70
2014,08,13,13,37,13.70
2014,08,13,13,38,13.70
2014,08,13,13,39,13.70
2014,08,13,13,40,13.70
2014,08,13,13,41,13.90
2014,08,13,13,42,14.10
2014,08,13,13,43,14.20
2014,08,13,13,44,14.20
2014,08,13,13,45,14.20
2014,08,13,13,46,14.20
2014,08,13,13,47,14.20
2014,08,13,13,48,14.20
2014,08,13,13,49,14.20
2014,08,13,13,50,14.20
2014,08,13,13,51,14.20
2014,08,13,13,52,14.20
2014,08,13,13,53,14.20
2014,08,13,13,54,14.30
2014,08,13,13,55,14.30
2014,08,13,13,56,14.30
2014,08,13,13,57,14.30
2014,08,13,13,58,14.40
2014,08,13,13,59,14.40
2014,08,13,14,00,14.40
2014,08,13,14,01,14.40
2014,08,13,14,02,14.40
2014,08,13,14,03,14.40
2014,08,13,14,04,14.40
2014,08,13,14,05,14.50
2014,08,13,14,06,14.50
2014,08,13,14,07,14.50
2014,08,13,14,08,14.50
2014,08,13,14,09,14.50
2014,08,13,14,10,14.50
2014,08,13,14,11,14.60
2014,08,13,14,12,14.60
2014,08,13,14,13,14.60
2014,08,13,14,14,14.60
2014,08,13,14,15,14.60
2014,08,13,14,16,14.60
2014,08,13,14,17,14.60
2014,08,13,14,18,14.70
2014,08,13,14,19,14.70
2014,08,13,14,20,14.80
2014,08,13,14,21,14.80
2014,08,13,14,22,14.80
2014,08,13,14,23,14.80
2014,08,13,14,24,14.80
2014,08,13,14,25,14.80
2014,08,13,14,26,14.80
2014,08,13,14,27,14.80
2014,08,13,14,28,14.80
2014,08,13,14,29,14.90
2014,08,13,14,30,14.90
2014,08,13,14,31,14.90
2014,08,13,14,32,15.00
2014,08,13,14,33,15.00
2014,08,13,14,34,15.10
2014,08,13,14,35,15.10
2014,08,13,14,36,15.10
2014,08,13,14,37,15.20
2014,08,13,14,38,15.20
2014,08,13,14,39,15.30
2014,08,13,14,40,15.30
2014,08,13,14,41,15.30
2014,08,13,14,42,15.30
2014,08,13,14,43,15.40
2014,08,13,14,44,15.40
2014,08,13,14,45,15.40
2014,08,13,14,46,15.50
2014,08,13,14,47,15.50
2014,08,13,14,48,15.50
2014,08,13,14,49,15.50
2014,08,13,14,50,15.50
2014,08,13,14,51,15.60
2014,08,13,14,52,15.60
2014,08,13,14,53,15.60
2014,08,13,14,54,15.70
2014,08,13,14,55,15.70
2014,08,13,14,56,15.80
2014,08,13,14,57,15.80
2014,08,13,14,58,15.80
2014,08,13,14,59,15.80
2014,08,13,15,00,15.80
2014,08,13,15,01,15.80
2014,08,13,15,02,15.80
2014,08,13,15,03,15.80
2014,08,13,15,04,15.80
2014,08,13,15,05,15.80
2014,08,13,15,06,15.90
2014,08,13,15,07,15.90
2014,08,13,15,08,15.90
2014,08,13,15,09,16.00
2014,08,13,15,10,16.10
2014,08,13,15,11,16.10
2014,08,13,15,12,16.10
2014,08,13,15,13,16.10
2014,08,13,15,14,16.10
2014,08,13,15,15,16.20
2014,08,13,15,16,16.20
2014,08,13,15,17,16.20
2014,08,13,15,18,16.20
2014,08,13,15,19,16.20
2014,08,13,15,20,16.20
2014,08,13,15,21,16.20
2014,08,13,15,22,16.20
2014,08,13,15,23,16.20
2014,08,13,15,24,16.20
2014,08,13,15,25,16.20
2014,08,13,15,26,16.20
2014,08,13,15,27,16.20
2014,08,13,15,28,16.20
2014,08,13,15,29,16.20
2014,08,13,15,30,16.20
2014,08,13,15,31,16.20
2014,08,13,15,32,16.20
2014,08,13,15,33,16.20
2014,08,13,15,34,16.30
2014,08,13,15,35,16.30
2014,08,13,15,36,16.30
2014,08,13,15,37,16.20
2014,08,13,15,38,16.30
2014,08,13,15,39,16.30
2014,08,13,15,40,16.30
2014,08,13,15,41,16.30
2014,08,13,15,42,16.30
2014,08,13,15,43,16.30
2014,08,13,15,44,16.20
2014,08,13,15,45,16.20
2014,08,13,15,46,16.20
2014,08,13,15,47,16.20
2014,08,13,15,48,16.20
2014,08,13,15,49,16.20
2014,08,13,15,50,16.20
2014,08,13,15,51,16.20
2014,08,13,15,52,16.20
2014,08,13,15,53,16.30
2014,08,13,15,54,16.30
2014,08,13,15,55,16.30
2014,08,13,15,56,16.30
2014,08,13,15,57,16.30
2014,08,13,15,58,16.40
2014,08,13,15,59,16.40
2014,08,13,16,00,16.40
2014,08,13,16,01,16.40
2014,08,13,16,02,16.30
2014,08,13,16,03,16.30
2014,08,13,16,04,16.30
2014,08,13,16,05,16.20
2014,08,13,16,06,16.20
2014,08,13,16,07,16.20
2014,08,13,16,08,16.20
2014,08,13,16,09,16.20
2014,08,13,16,10,16.20
2014,08,13,16,11,16.20
2014,08,13,16,12,16.20
2014,08,13,16,13,16.20
2014,08,13,16,14,16.20
2014,08,13,16,15,16.20
2014,08,13,16,16,16.20
2014,08,13,16,17,16.20
2014,08,13,16,18,16.20
2014,08,13,16,19,16.20
2014,08,13,16,20,16.20
2014,08,13,16,21,16.20
2014,08,13,16,22,16.20
2014,08,13,16,23,16.20
2014,08,13,16,24,16.20
2014,08,13,16,25,16.20
2014,08,13,16,26,16.20
2014,08,13,16,27,16.20
2014,08,13,16,28,16.30
2014,08,13,16,29,16.30
2014,08,13,16,30,16.30
2014,08,13,16,31,16.30
2014,08,13,16,32,16.40
2014,08,13,16,33,16.40
2014,08,13,16,34,16.40
2014,08,13,16,35,16.40
2014,08,13,16,36,16.40
2014,08,13,16,37,16.40
2014,08,13,16,38,16.40
2014,08,13,16,39,16.50
2014,08,13,16,40,16.40
2014,08,13,16,41,16.40
2014,08,13,16,42,16.40
2014,08,13,16,43,16.40
2014,08,13,16,44,16.40
2014,08,13,16,45,16.40
2014,08,13,16,46,16.40
2014,08,13,16,47,16.30
2014,08,13,16,48,16.30
2014,08,13,16,49,16.30
2014,08,13,16,50,16.20
2014,08,13,16,51,16.10
2014,08,13,16,52,16.00
2014,08,13,16,53,15.90
2014,08,13,16,54,15.80
2014,08,13,16,55,15.70
2014,08,13,16,56,15.70
2014,08,13,16,57,15.70
2014,08,13,16,58,15.70
2014,08,13,16,59,15.60
2014,08,13,17,00,15.60
2014,08,13,17,01,15.60
2014,08,13,17,02,15.60
2014,08,13,17,03,15.60
2014,08,13,17,04,15.60
2014,08,13,17,05,15.60
2014,08,13,17,06,15.60
2014,08,13,17,07,15.60
2014,08,13,17,08,15.60
2014,08,13,17,09,15.50
2014,08,13,17,10,15.50
2014,08,13,17,11,15.50
2014,08,13,17,12,15.50
2014,08,13,17,13,15.50
2014,08,13,17,14,15.50
2014,08,13,17,15,15.50
2014,08,13,17,16,15.50
2014,08,13,17,17,15.50
2014,08,13,17,18,15.50
2014,08,13,17,19,15.40